�������l�o���
Date,Time,MP-1(��Sv/h),MP-2(��Sv/h),MP-3(��Sv/h),MP-4(��Sv/h),MP-5(��Sv/h),MP-6(��Sv/h),MP-7(��Sv/h),MP-8(��Sv/h),����,����(m/s),���J
2018/02/06,00:00,0.862,1.442,0.902,1.655,1.157,0.480,0.856,0.830,�k��,5.6,��
2018/02/06,00:10,0.863,1.437,0.901,1.653,1.156,0.481,0.855,0.827,�k��,5.5,��
2018/02/06,00:20,0.864,1.441,0.902,1.654,1.156,0.482,0.857,0.827,�k��,5.5,��
2018/02/06,00:30,0.864,1.441,0.900,1.653,1.156,0.481,0.854,0.828,�k��,5.1,��
2018/02/06,00:40,0.863,1.438,0.902,1.652,1.157,0.482,0.857,0.829,�k��,4.6,��
2018/02/06,00:50,0.864,1.437,0.902,1.653,1.156,0.482,0.857,0.828,�k��,5.0,��
2018/02/06,01:00,0.863,1.439,0.900,1.655,1.156,0.482,0.857,0.828,�k��,5.0,�L
2018/02/06,01:10,0.865,1.440,0.901,1.656,1.157,0.483,0.857,0.828,�k��,4.4,�L
2018/02/06,01:20,0.865,1.440,0.901,1.653,1.160,0.482,0.857,0.827,�k��,3.2,��
2018/02/06,01:30,0.864,1.441,0.901,1.654,1.156,0.481,0.857,0.829,�k,1.9,��
2018/02/06,01:40,0.863,1.437,0.902,1.655,1.155,0.481,0.856,0.829,�k��,2.3,��
2018/02/06,01:50,0.862,1.439,0.900,1.654,1.159,0.481,0.855,0.829,���k��,1.8,��
2018/02/06,02:00,0.866,1.438,0.900,1.656,1.157,0.480,0.855,0.827,��,0.9,��
2018/02/06,02:10,0.864,1.439,0.898,1.656,1.155,0.482,0.854,0.828,�k��,2.0,��
2018/02/06,02:20,0.865,1.439,0.902,1.652,1.157,0.480,0.856,0.828,�k�k��,2.6,��
2018/02/06,02:30,0.864,1.440,0.900,1.653,1.154,0.481,0.856,0.830,�k�k��,3.2,��
2018/02/06,02:40,0.863,1.440,0.902,1.654,1.155,0.481,0.856,0.828,�k��,3.7,��
2018/02/06,02:50,0.865,1.438,0.900,1.654,1.159,0.481,0.856,0.829,�k��,3.6,��
2018/02/06,03:00,0.864,1.439,0.901,1.654,1.156,0.480,0.857,0.829,�k�k��,3.4,��
2018/02/06,03:10,0.862,1.439,0.900,1.652,1.155,0.482,0.857,0.827,�k�k��,3.4,��
2018/02/06,03:20,0.863,1.437,0.901,1.652,1.157,0.481,0.856,0.829,�k�k��,3.8,��
2018/02/06,03:30,0.864,1.436,0.899,1.651,1.156,0.479,0.854,0.827,�k�k��,4.5,��
2018/02/06,03:40,0.862,1.437,0.902,1.654,1.154,0.481,0.855,0.828,�k�k��,4.1,��
2018/02/06,03:50,0.860,1.439,0.900,1.653,1.157,0.481,0.856,0.828,�k�k��,3.7,��
2018/02/06,04:00,0.863,1.438,0.898,1.652,1.155,0.483,0.855,0.826,�k��,3.7,��
2018/02/06,04:10,0.861,1.439,0.899,1.652,1.155,0.480,0.857,0.827,�k��,4.5,��
2018/02/06,04:20,0.862,1.436,0.899,1.653,1.154,0.480,0.856,0.828,�k��,4.9,��
2018/02/06,04:30,0.863,1.436,0.899,1.653,1.155,0.480,0.856,0.828,���k��,5.2,��
2018/02/06,04:40,0.862,1.438,0.900,1.653,1.152,0.481,0.857,0.827,���k��,5.0,��
2018/02/06,04:50,0.860,1.437,0.899,1.652,1.152,0.482,0.856,0.828,�k��,4.5,��
2018/02/06,05:00,0.859,1.435,0.898,1.653,1.153,0.481,0.856,0.828,���k��,5.7,��
2018/02/06,05:10,0.860,1.438,0.898,1.649,1.152,0.480,0.857,0.826,���k��,6.0,��
2018/02/06,05:20,0.861,1.436,0.899,1.651,1.153,0.481,0.855,0.827,���k��,6.1,��
2018/02/06,05:30,0.860,1.437,0.897,1.654,1.153,0.481,0.854,0.826,���k��,6.0,��
2018/02/06,05:40,0.861,1.436,0.900,1.652,1.152,0.480,0.854,0.829,���k��,5.8,��
2018/02/06,05:50,0.860,1.438,0.899,1.651,1.154,0.480,0.855,0.827,���k��,6.2,��
2018/02/06,06:00,0.861,1.436,0.898,1.651,1.153,0.479,0.857,0.829,���k��,5.6,��
2018/02/06,06:10,0.859,1.435,0.900,1.652,1.152,0.481,0.855,0.828,���k��,5.6,��
2018/02/06,06:20,0.858,1.437,0.897,1.651,1.152,0.479,0.854,0.829,���k��,4.4,��
2018/02/06,06:30,0.859,1.437,0.897,1.651,1.153,0.481,0.856,0.827,���k��,3.1,��
2018/02/06,06:40,0.862,1.434,0.899,1.653,1.150,0.481,0.856,0.828,��,3.2,��
2018/02/06,06:50,0.860,1.435,0.898,1.651,1.153,0.480,0.854,0.826,��,3.0,��
2018/02/06,07:00,0.860,1.437,0.898,1.651,1.152,0.479,0.855,0.828,���k��,2.2,��
2018/02/06,07:10,0.860,1.434,0.898,1.650,1.151,0.482,0.856,0.827,�k��,2.3,��
2018/02/06,07:20,0.860,1.436,0.901,1.653,1.151,0.480,0.856,0.826,�k��,4.3,��
2018/02/06,07:30,0.861,1.437,0.897,1.651,1.152,0.481,0.855,0.826,�k��,3.2,��
2018/02/06,07:40,0.861,1.434,0.895,1.650,1.152,0.480,0.854,0.827,�k��,3.1,��
2018/02/06,07:50,0.861,1.436,0.899,1.654,1.152,0.480,0.854,0.828,�k��,4.0,��
2018/02/06,08:00,0.860,1.435,0.900,1.653,1.150,0.479,0.854,0.828,�k��,4.3,��
2018/02/06,08:10,0.862,1.437,0.898,1.653,1.153,0.479,0.856,0.828,�k��,4.5,��
2018/02/06,08:20,0.864,1.435,0.902,1.650,1.151,0.480,0.857,0.827,�k��,4.5,��
2018/02/06,08:30,0.862,1.435,0.899,1.652,1.154,0.480,0.855,0.829,�k��,4.5,��
2018/02/06,08:40,0.858,1.435,0.901,1.655,1.152,0.480,0.858,0.827,�k��,5.1,��
2018/02/06,08:50,0.853,1.438,0.900,1.652,1.153,0.480,0.856,0.827,�k��,5.3,��
2018/02/06,09:00,0.861,1.438,0.900,1.653,1.155,0.480,0.858,0.828,�k��,4.7,��
2018/02/06,09:10,0.863,1.438,0.902,1.654,1.154,0.480,0.858,0.827,���k��,5.2,��
2018/02/06,09:20,0.862,1.438,0.901,1.653,1.153,0.482,0.857,0.828,��,3.1,��
2018/02/06,09:30,0.861,1.437,0.901,1.655,1.154,0.481,0.857,0.829,��,3.7,��
2018/02/06,09:40,0.861,1.439,0.901,1.654,1.155,0.482,0.856,0.828,��,2.9,��
2018/02/06,09:50,0.851,1.438,0.899,1.653,1.156,0.480,0.857,0.829,��,2.6,��
2018/02/06,10:00,0.852,1.435,0.902,1.654,1.156,0.480,0.855,0.828,��,3.3,��
2018/02/06,10:10,0.854,1.436,0.902,1.654,1.159,0.481,0.858,0.829,��,3.3,��
2018/02/06,10:20,0.855,1.437,0.902,1.654,1.158,0.480,0.857,0.830,��,3.4,��
2018/02/06,10:30,0.852,1.434,0.903,1.655,1.156,0.482,0.857,0.829,��,3.6,��
2018/02/06,10:40,0.853,1.432,0.903,1.656,1.160,0.482,0.858,-,��,3.0,��
2018/02/06,10:50,0.855,1.437,0.903,1.655,1.158,0.481,0.856,-,���쐼,2.3,��
2018/02/06,11:00,0.855,1.432,0.902,1.653,1.158,0.482,0.857,-,�쐼,1.5,��
2018/02/06,11:10,0.855,1.433,0.903,1.655,1.158,0.483,0.857,-,��,2.2,��
2018/02/06,11:20,0.856,1.432,0.904,1.659,1.160,0.482,0.856,-,���쐼,2.9,��
2018/02/06,11:30,0.860,1.439,0.904,1.658,1.159,0.482,0.856,-,��,6.1,��
2018/02/06,11:40,0.859,1.439,0.905,1.658,1.161,0.483,0.856,-,��,4.9,��
2018/02/06,11:50,0.866,1.442,0.905,1.659,1.160,0.482,0.857,-,���쐼,4.9,��
2018/02/06,12:00,0.868,1.442,0.904,1.659,1.161,0.484,0.857,-,��,6.6,��
2018/02/06,12:10,0.870,1.444,0.905,1.658,1.164,0.484,0.857,-,��,6.5,��
2018/02/06,12:20,0.871,1.444,0.907,1.657,1.164,0.484,0.856,-,���k��,4.8,��
2018/02/06,12:30,0.871,1.444,0.907,1.657,1.163,0.484,0.857,-,��,7.4,��
2018/02/06,12:40,0.868,1.442,0.908,1.658,1.164,0.483,0.858,-,��,9.2,��
2018/02/06,12:50,0.869,1.445,0.906,1.657,1.161,0.484,0.859,-,��,7.5,��
2018/02/06,13:00,0.871,1.443,0.908,1.658,1.162,0.484,0.857,-,��,7.3,��
2018/02/06,13:10,0.872,1.439,0.907,1.661,1.164,0.483,0.859,-,���k��,8.7,��
2018/02/06,13:20,0.873,1.440,0.908,1.660,1.164,0.483,0.857,-,��,7.6,��
2018/02/06,13:30,0.872,1.439,0.907,1.659,1.163,0.484,0.857,-,��,9.0,��
2018/02/06,13:40,0.873,1.441,0.907,1.662,1.164,0.483,0.858,-,���k��,9.4,��
2018/02/06,13:50,0.874,1.436,0.907,1.661,1.163,0.483,0.858,-,��,8.2,��
2018/02/06,14:00,0.873,1.435,0.905,1.661,1.164,0.484,0.858,-,��,6.3,��
2018/02/06,14:10,0.868,1.442,0.905,1.662,1.165,0.485,0.860,-,��,8.0,��
2018/02/06,14:20,0.868,1.437,0.907,1.662,1.165,0.482,0.859,-,��,7.9,��
2018/02/06,14:30,0.866,1.438,0.906,1.662,1.168,0.483,0.861,-,��,8.0,��
2018/02/06,14:40,0.867,1.440,0.906,1.663,1.165,0.483,0.860,-,��,7.9,��
2018/02/06,14:50,0.872,1.443,0.906,1.664,1.168,0.486,0.860,-,��,9.4,��
2018/02/06,15:00,0.875,1.441,0.907,1.664,1.163,0.486,0.861,-,��,10.0,��
2018/02/06,15:10,0.874,1.442,0.907,1.661,1.166,0.485,0.862,0.831,��,9.4,��
2018/02/06,15:20,0.874,1.443,0.907,1.665,1.166,0.485,0.861,0.833,��,6.0,��
2018/02/06,15:30,0.874,1.445,0.910,1.664,1.165,0.485,0.860,0.831,���k��,6.6,��
2018/02/06,15:40,0.872,1.446,0.908,1.664,1.165,0.485,0.858,0.830,��,6.7,��
2018/02/06,15:50,0.872,1.444,0.908,1.663,1.165,0.484,0.861,0.831,��,5.3,��
2018/02/06,16:00,0.872,1.446,0.908,1.664,1.167,0.485,0.860,0.831,���k��,5.8,��
2018/02/06,16:10,0.872,1.448,0.910,1.664,1.165,0.485,0.858,0.831,��,7.9,��
2018/02/06,16:20,0.874,1.446,0.909,1.663,1.163,0.483,0.860,0.831,���k��,6.8,��
2018/02/06,16:30,0.872,1.445,0.906,1.664,1.168,0.484,0.858,0.832,���k��,5.3,��
2018/02/06,16:40,0.870,1.446,0.909,1.665,1.167,0.483,0.860,0.830,��,6.2,��
2018/02/06,16:50,0.872,1.447,0.907,1.662,1.168,0.483,0.862,0.830,��,6.9,��
2018/02/06,17:00,0.869,1.446,0.909,1.664,1.167,0.485,0.860,0.832,���k��,7.4,��
2018/02/06,17:10,0.872,1.445,0.908,1.664,1.165,0.484,0.859,0.831,��,6.0,��
2018/02/06,17:20,0.870,1.444,0.911,1.663,1.166,0.484,0.862,0.831,��,6.4,��
2018/02/06,17:30,0.870,1.445,0.908,1.659,1.166,0.484,0.859,0.830,��,6.6,��
2018/02/06,17:40,0.870,1.446,0.907,1.663,1.167,0.483,0.860,0.830,���k��,6.2,��
2018/02/06,17:50,0.869,1.445,0.908,1.662,1.167,0.483,0.861,0.830,��,7.0,��
2018/02/06,18:00,0.868,1.444,0.908,1.663,1.166,0.485,0.859,0.831,��,6.5,��
2018/02/06,18:10,0.868,1.447,0.907,1.663,1.165,0.483,0.859,0.830,��,6.3,��
2018/02/06,18:20,0.869,1.444,0.908,1.663,1.165,0.482,0.861,0.830,��,7.2,��
2018/02/06,18:30,0.870,1.444,0.908,1.662,1.166,0.483,0.859,0.831,��,7.1,��
2018/02/06,18:40,0.871,1.443,0.908,1.661,1.166,0.484,0.858,0.830,��,6.6,��
2018/02/06,18:50,0.869,1.445,0.910,1.662,1.165,0.483,0.858,0.833,��,6.6,��
2018/02/06,19:00,0.869,1.446,0.906,1.662,1.165,0.484,0.858,0.830,���쐼,6.9,��
2018/02/06,19:10,0.869,1.444,0.905,1.664,1.163,0.483,0.859,0.831,��,7.0,��
2018/02/06,19:20,0.868,1.443,0.906,1.661,1.166,0.483,0.859,0.829,��,6.8,��
2018/02/06,19:30,0.867,1.445,0.908,1.662,1.166,0.483,0.858,0.830,��,7.1,��
2018/02/06,19:40,0.867,1.446,0.907,1.662,1.162,0.484,0.858,0.831,��,7.6,��
2018/02/06,19:50,0.868,1.443,0.907,1.662,1.163,0.483,0.856,0.831,��,7.0,��
2018/02/06,20:00,0.871,1.445,0.908,1.664,1.164,0.484,0.859,0.830,��,7.8,��
2018/02/06,20:10,0.869,1.445,0.905,1.665,1.165,0.482,0.861,0.831,��,8.1,��
2018/02/06,20:20,0.868,1.443,0.904,1.664,1.164,0.482,0.859,0.831,��,7.9,��
2018/02/06,20:30,0.869,1.446,0.906,1.661,1.165,0.482,0.859,0.831,��,6.6,��
2018/02/06,20:40,0.868,1.443,0.905,1.661,1.164,0.482,0.857,0.830,��,7.6,��
2018/02/06,20:50,0.869,1.445,0.906,1.662,1.163,0.482,0.859,0.830,��,8.7,��
2018/02/06,21:00,0.870,1.445,0.906,1.662,1.165,0.482,0.859,0.830,��,7.3,��
2018/02/06,21:10,0.870,1.442,0.907,1.663,1.163,0.483,0.859,0.830,��,7.4,��
2018/02/06,21:20,0.867,1.443,0.907,1.663,1.163,0.481,0.860,0.831,��,8.9,��
2018/02/06,21:30,0.870,1.444,0.906,1.663,1.164,0.482,0.860,0.829,��,8.4,��
2018/02/06,21:40,0.869,1.442,0.904,1.661,1.162,0.482,0.858,0.829,��,7.7,��
2018/02/06,21:50,0.868,1.444,0.908,1.663,1.163,0.483,0.858,0.830,��,6.9,��
2018/02/06,22:00,0.869,1.442,0.905,1.663,1.163,0.481,0.860,0.830,��,7.0,��
2018/02/06,22:10,0.867,1.444,0.907,1.663,1.161,0.484,0.857,0.829,��,6.7,��
2018/02/06,22:20,0.870,1.445,0.906,1.662,1.159,0.482,0.859,0.830,��,5.3,��
2018/02/06,22:30,0.869,1.445,0.907,1.664,1.164,0.484,0.857,0.830,���쐼,5.4,��
2018/02/06,22:40,0.868,1.443,0.909,1.665,1.161,0.483,0.856,0.830,���쐼,5.7,��
2018/02/06,22:50,0.869,1.444,0.908,1.665,1.161,0.484,0.858,0.829,���쐼,6.2,��
2018/02/06,23:00,0.867,1.443,0.907,1.664,1.160,0.483,0.859,0.832,���쐼,6.0,��
2018/02/06,23:10,0.869,1.441,0.907,1.665,1.164,0.481,0.858,0.831,�쐼,4.8,��
2018/02/06,23:20,0.867,1.443,0.908,1.664,1.164,0.482,0.857,0.829,���쐼,5.8,��
2018/02/06,23:30,0.869,1.445,0.907,1.664,1.162,0.482,0.858,0.830,���쐼,5.2,��
2018/02/06,23:40,0.867,1.443,0.905,1.663,1.162,0.482,0.860,0.831,���쐼,7.4,��
2018/02/06,23:50,0.866,1.443,0.906,1.662,1.161,0.482,0.859,0.829,��,8.3,��
